Wind_Speed
30 29 29 28 28 28 28 28 28 28 28 28 27 26 25 25 24 23 23 23 23 23 23 23 23 22 22 22 22 23 23 23 23 23 24 23 23 23 23 23 23 23 23
30 29 29 29 29 29 29 29 29 29 29 29 28 28 27 26 26 25 25 25 25 25 25 24 24 23 23 23 24 24 25 25 25 25 25 25 25 25 25 25 24 24 24
30 30 30 31 30 30 30 30 30 30 30 30 30 29 29 28 27 27 26 26 26 26 26 26 25 25 25 25 25 26 26 26 26 26 26 26 26 26 26 26 26 26 25
31 31 31 31 32 31 31 31 32 32 32 32 31 31 30 31 29 29 29 28 28 27 27 27 27 27 27 27 27 27 28 27 27 27 27 27 27 27 27 27 27 27 27
33 31 31 32 32 33 33 33 33 33 33 33 32 31 32 32 32 31 31 30 30 29 29 29 30 30 29 29 29 29 29 29 28 28 28 28 27 27 28 28 28 28 28
34 32 32 31 31 33 34 34 34 34 34 33 33 32 32 33 33 34 33 32 32 32 31 31 31 32 32 31 31 31 31 30 29 29 29 29 29 29 29 29 29 29 29
36 34 34 33 33 33 34 35 35 35 34 34 35 34 34 34 34 34 34 34 34 34 34 34 34 34 34 34 34 33 33 32 31 31 31 30 31 30 30 31 31 31 32
38 37 36 36 35 34 35 36 37 37 37 37 37 37 37 37 36 36 36 36 36 36 36 36 36 36 36 36 36 35 35 34 34 33 33 33 33 33 33 32 33 33 34
39 38 38 38 38 37 37 37 38 38 39 40 40 39 39 39 38 38 37 37 37 37 37 37 37 38 38 37 37 37 37 37 36 36 35 36 36 36 36 36 35 36 36
42 40 39 39 39 39 39 39 38 39 40 41 41 41 41 41 40 39 39 39 39 39 39 39 39 39 39 39 39 38 38 37 38 38 38 38 38 38 38 38 38 38 38
44 42 40 40 40 40 40 40 39 40 40 41 41 42 42 42 42 41 41 41 42 41 41 40 40 41 41 41 41 41 40 39 40 40 40 40 40 41 40 40 40 40 40
43 43 41 41 41 42 42 42 41 41 41 42 43 43 43 43 42 42 42 43 43 43 43 43 43 43 43 43 43 43 43 42 42 42 42 43 43 43 43 43 42 42 42
43 43 43 43 43 43 43 43 43 43 43 44 44 44 43 43 43 44 44 44 43 44 44 45 44 45 44 43 43 43 44 44 44 44 44 45 45 45 45 45 44 44 45
44 44 45 44 43 44 45 45 45 45 45 45 45 44 44 44 44 44 44 44 45 45 46 46 46 47 47 46 45 45 45 46 46 47 47 48 48 48 48 47 47 47 47
44 44 45 44 45 45 46 46 46 46 45 45 45 44 44 44 45 46 45 46 47 47 47 47 47 46 47 47 47 48 48 49 50 50 50 50 49 49 49 49 49 49 49
45 45 44 44 44 45 46 46 46 46 45 44 44 44 44 45 46 46 47 47 48 48 47 48 48 48 47 46 47 49 49 50 51 51 51 52 52 51 51 51 51 51 51
45 46 46 45 44 43 43 43 44 45 45 44 44 45 45 46 48 48 47 48 49 48 48 48 49 49 49 48 49 50 51 51 51 51 52 52 52 52 53 54 53 54 54
44 45 45 44 44 43 43 43 44 45 46 46 46 46 46 47 48 49 49 49 49 49 49 49 49 50 50 51 51 51 51 51 51 52 51 52 52 53 54 56 57 56 57
42 43 43 43 44 44 44 44 45 45 46 46 47 47 47 48 49 49 50 51 50 50 49 49 50 51 52 52 52 52 51 51 52 52 52 52 53 54 55 57 57 58 58
40 41 42 43 44 44 44 44 45 45 46 46 47 48 48 48 49 50 50 49 50 50 51 51 52 52 53 53 53 53 52 53 53 53 53 53 53 54 55 56 57 57 57
38 40 42 42 44 45 44 44 44 45 45 46 47 47 48 48 49 49 49 49 50 51 52 52 53 53 53 53 53 54 54 54 54 54 54 55 55 56 56 56 57 57 56
38 39 41 42 42 44 45 45 44 45 45 45 46 46 47 48 48 49 49 50 50 51 52 52 52 52 52 53 54 53 53 53 54 54 55 55 56 56 56 56 56 55 54
38 39 41 42 43 44 45 45 45 46 46 45 46 46 47 48 48 49 50 50 51 51 51 51 51 50 51 52 53 53 53 53 54 54 56 55 55 55 55 55 54 54 53
40 41 42 42 43 43 45 46 47 47 46 46 46 46 46 47 48 48 48 49 50 51 50 51 51 51 51 51 52 53 53 53 54 55 55 54 54 53 54 53 52 52 52
40 42 43 43 43 43 45 45 46 46 46 46 46 46 46 46 46 46 47 47 48 49 50 51 51 51 51 52 53 53 53 54 54 54 54 53 52 52 51 51 51 52 52
39 40 41 42 42 42 43 44 44 45 45 45 45 46 45 45 44 45 45 46 47 48 49 50 51 51 52 52 53 54 54 54 54 53 53 52 51 51 50 50 50 51 52
Wind_Direction
245 246 247 247 247 246 245 243 242 243 241 242 243 245 247 250 252 256 259 260 263 267 270 272 275 277 280 283 284 285 286 288 289 289 289 288 288 288 288 288 287 287 287
245 246 247 247 248 248 247 244 243 245 243 243 244 247 248 251 253 255 259 260 263 268 272 274 275 277 280 283 285 286 287 287 288 287 287 287 287 287 288 288 287 287 286
244 246 246 247 248 249 249 247 245 246 245 244 245 247 249 251 253 255 259 261 264 267 270 273 275 276 279 281 284 286 287 287 287 287 287 287 287 287 287 287 286 286 285
242 245 246 247 248 249 249 249 248 246 246 246 247 248 250 252 253 256 259 261 263 267 269 271 273 275 278 281 283 285 287 287 287 286 286 286 286 286 287 286 285 285 285
242 244 246 247 248 248 248 249 250 249 246 247 248 249 250 252 254 257 259 262 263 267 269 271 273 275 277 280 282 284 285 284 285 285 285 285 285 286 286 286 285 285 285
241 243 246 248 249 249 247 247 248 248 247 248 249 250 252 253 255 258 260 262 264 266 269 270 272 274 275 278 281 283 283 283 283 283 284 284 284 285 286 286 285 285 284
241 243 245 248 249 249 248 248 247 249 250 250 251 253 253 255 256 259 260 262 264 266 268 270 272 274 275 277 280 281 281 282 282 282 282 282 283 285 285 285 285 284 284
243 245 245 247 249 250 251 251 250 252 253 253 254 256 256 257 257 259 261 263 264 266 267 269 271 273 274 276 278 279 279 280 280 280 280 281 283 284 284 284 283 284 283
245 247 248 249 249 250 252 253 252 252 253 253 254 256 257 258 259 260 262 264 264 265 267 270 271 272 274 276 276 277 278 277 277 277 279 281 282 283 282 282 282 282 282
246 248 249 249 250 250 251 252 253 253 254 254 254 255 257 259 260 261 262 263 265 266 268 270 271 272 273 274 275 276 277 275 275 276 278 280 281 282 282 282 282 282 282
244 247 250 250 250 251 253 253 254 254 254 254 254 255 257 258 260 262 261 263 264 267 269 270 271 271 272 274 275 275 275 275 275 276 278 280 280 281 281 281 281 281 281
245 246 250 250 251 252 253 254 253 253 254 254 255 255 257 258 259 260 261 263 264 266 269 270 271 271 271 273 274 274 274 274 275 277 278 279 280 280 280 280 281 281 281
245 247 249 250 250 251 252 253 253 252 254 255 256 256 256 257 259 260 261 263 264 266 268 269 271 271 272 273 274 274 274 275 276 277 278 278 279 279 279 279 280 281 281
247 248 249 251 250 251 252 254 254 252 253 254 255 256 257 258 260 261 261 263 265 266 267 269 271 273 273 274 274 274 275 276 277 277 277 278 278 279 278 279 280 280 281
247 249 249 251 252 252 252 253 254 253 253 253 255 256 258 259 261 262 263 264 265 266 267 269 272 273 273 274 274 275 276 277 277 278 278 278 277 277 277 278 278 279 279
247 250 250 251 253 253 253 253 253 254 254 253 255 257 259 259 260 262 263 265 267 267 268 269 271 271 272 273 274 276 277 278 278 278 277 277 277 276 276 277 278 278 278
248 249 249 250 252 253 253 254 255 255 255 255 256 257 258 260 261 262 263 265 267 269 269 270 270 272 272 273 275 276 277 278 278 278 278 277 277 277 277 278 278 278 278
249 249 249 251 252 253 255 255 256 257 257 257 258 258 260 261 262 263 264 265 267 268 270 270 271 272 272 274 275 277 277 277 277 278 277 277 278 278 278 278 278 278 278
250 250 251 252 253 254 255 256 256 257 258 258 259 259 261 262 263 264 265 267 268 268 269 271 272 272 273 274 275 276 277 276 276 277 277 278 278 278 279 279 279 278 278
251 251 252 253 253 254 256 257 257 258 259 259 260 261 262 264 265 266 267 267 268 269 270 272 273 274 275 275 274 275 275 275 276 277 278 278 278 279 279 279 279 279 278
251 252 254 254 254 256 258 258 259 260 261 261 262 263 263 265 266 267 267 268 269 270 272 273 274 275 276 276 275 275 275 275 276 277 278 278 278 278 278 279 279 279 278
254 255 256 257 257 259 260 260 261 262 262 263 263 264 265 267 268 268 268 269 270 271 272 274 275 276 276 276 276 276 276 276 276 277 278 278 278 278 278 279 279 280 280
256 257 257 258 260 261 262 262 262 263 264 265 265 265 266 267 267 267 268 270 271 272 273 274 275 276 276 276 276 276 277 277 278 278 279 280 279 279 279 279 279 280 280
258 258 259 260 262 263 263 264 264 265 265 264 264 265 267 267 268 268 269 271 273 274 273 273 274 275 276 277 277 277 278 279 279 280 280 280 280 280 280 280 280 280 279
261 261 261 261 263 264 265 264 264 264 264 264 264 265 266 267 268 269 270 272 274 274 273 274 275 275 276 277 278 279 280 280 280 279 280 280 280 280 280 280 280 280 279
263 262 261 262 264 264 264 264 264 264 263 264 265 266 267 267 267 269 271 273 274 274 275 275 276 276 277 278 280 281 281 281 281 280 280 280 280 280 280 280 280 280 280
Height
5801 5803 5804 5805 5806 5808 5810 5811 5813 5815 5817 5819 5821 5823 5825 5826 5827 5827 5828 5829 5829 5829 5829 5829 5829 5828 5828 5827 5826 5825 5824 5822 5821 5820 5818 5817 5816 5815 5814 5812 5811 5810 5808
5795 5796 5798 5799 5801 5802 5804 5806 5808 5810 5812 5813 5815 5817 5819 5820 5821 5822 5823 5824 5824 5824 5824 5824 5824 5823 5823 5822 5821 5820 5818 5817 5815 5814 5813 5812 5810 5809 5808 5807 5806 5804 5803
5788 5790 5791 5793 5794 5796 5798 5800 5801 5803 5805 5807 5809 5811 5812 5814 5815 5816 5817 5818 5818 5819 5819 5819 5818 5818 5817 5816 5815 5814 5813 5811 5810 5808 5807 5806 5805 5803 5802 5801 5800 5799 5797
5782 5783 5785 5786 5788 5790 5791 5793 5795 5797 5799 5801 5803 5805 5806 5808 5809 5810 5811 5812 5812 5812 5812 5812 5812 5812 5811 5810 5809 5808 5807 5805 5804 5802 5801 5800 5799 5797 5796 5795 5794 5793 5791
5774 5776 5778 5780 5781 5783 5785 5786 5788 5790 5792 5794 5796 5798 5799 5801 5802 5803 5804 5805 5805 5806 5806 5806 5806 5805 5805 5804 5803 5802 5800 5799 5797 5796 5795 5794 5792 5791 5790 5789 5788 5786 5785
5766 5768 5771 5772 5774 5775 5777 5779 5781 5783 5784 5787 5789 5790 5792 5794 5795 5796 5797 5797 5798 5798 5799 5799 5798 5798 5798 5797 5796 5795 5793 5792 5791 5789 5788 5787 5786 5784 5783 5782 5781 5779 5778
5757 5760 5762 5765 5766 5768 5770 5771 5773 5775 5777 5779 5781 5783 5784 5786 5787 5788 5789 5790 5790 5790 5791 5791 5790 5790 5790 5789 5788 5787 5786 5785 5784 5782 5781 5780 5779 5777 5776 5775 5773 5772 5771
5748 5751 5753 5756 5758 5760 5761 5763 5765 5767 5769 5770 5773 5774 5776 5778 5778 5779 5780 5781 5782 5782 5782 5782 5782 5782 5781 5781 5780 5779 5778 5777 5776 5775 5773 5772 5771 5769 5768 5766 5765 5764 5763
5739 5742 5744 5747 5749 5751 5753 5755 5756 5758 5760 5762 5764 5766 5767 5768 5770 5771 5771 5772 5773 5773 5774 5774 5773 5773 5772 5772 5771 5770 5769 5768 5767 5766 5765 5764 5762 5761 5760 5758 5756 5755 5754
5729 5732 5734 5737 5740 5742 5744 5746 5747 5749 5751 5753 5755 5756 5758 5759 5760 5762 5762 5763 5763 5764 5764 5764 5764 5763 5763 5762 5761 5760 5760 5759 5758 5757 5756 5754 5753 5752 5750 5749 5747 5746 5745
5719 5722 5724 5727 5730 5732 5734 5736 5737 5739 5741 5743 5744 5746 5747 5749 5750 5751 5753 5753 5753 5753 5754 5753 5753 5753 5753 5752 5751 5751 5750 5749 5748 5746 5746 5744 5743 5742 5740 5739 5737 5736 5735
5709 5712 5714 5717 5719 5721 5723 5725 5727 5729 5731 5732 5734 5735 5737 5738 5740 5740 5741 5742 5743 5743 5743 5743 5743 5742 5742 5742 5741 5740 5739 5738 5737 5736 5735 5733 5732 5731 5729 5728 5727 5725 5724
5699 5701 5704 5706 5708 5710 5712 5714 5716 5718 5720 5721 5723 5724 5726 5727 5729 5729 5730 5731 5731 5732 5732 5732 5731 5731 5730 5730 5729 5728 5727 5726 5725 5724 5723 5721 5720 5719 5718 5716 5715 5714 5712
5688 5690 5693 5694 5696 5698 5700 5702 5704 5706 5708 5710 5711 5713 5714 5716 5717 5718 5718 5719 5720 5720 5720 5720 5719 5719 5718 5717 5716 5715 5714 5713 5712 5711 5710 5709 5707 5706 5704 5703 5702 5701 5700
5676 5678 5681 5683 5684 5686 5688 5690 5692 5694 5696 5698 5700 5701 5703 5704 5705 5706 5707 5707 5708 5708 5709 5708 5707 5706 5705 5704 5703 5702 5701 5700 5699 5698 5696 5695 5693 5692 5691 5690 5689 5688 5687
5665 5667 5669 5671 5673 5674 5676 5678 5680 5682 5684 5686 5688 5690 5691 5692 5693 5694 5694 5694 5694 5694 5695 5695 5694 5694 5692 5691 5690 5689 5688 5687 5685 5683 5682 5680 5679 5678 5677 5676 5675 5673 5672
5653 5655 5657 5659 5661 5663 5665 5667 5669 5670 5672 5675 5676 5678 5679 5680 5681 5681 5682 5682 5681 5681 5681 5682 5681 5680 5679 5677 5676 5675 5674 5672 5671 5669 5667 5666 5664 5663 5662 5661 5659 5658 5656
5642 5644 5646 5648 5650 5652 5654 5655 5657 5659 5661 5663 5665 5666 5667 5668 5668 5669 5669 5668 5668 5668 5668 5668 5667 5666 5665 5663 5662 5660 5659 5657 5656 5654 5653 5651 5650 5648 5646 5645 5644 5642 5640
5631 5633 5636 5637 5639 5641 5643 5644 5646 5648 5649 5651 5652 5653 5654 5655 5655 5655 5655 5655 5655 5654 5654 5654 5653 5651 5650 5648 5647 5646 5644 5643 5641 5640 5638 5636 5634 5633 5631 5629 5627 5626 5624
5621 5623 5625 5627 5628 5630 5632 5633 5634 5636 5637 5639 5640 5641 5641 5642 5642 5642 5642 5642 5641 5641 5640 5639 5638 5637 5635 5633 5632 5631 5630 5629 5627 5625 5623 5622 5619 5617 5615 5613 5612 5609 5608
5611 5613 5615 5616 5617 5619 5620 5621 5622 5624 5625 5626 5627 5628 5628 5628 5629 5629 5628 5628 5627 5626 5625 5625 5624 5622 5621 5619 5617 5616 5615 5614 5613 5610 5609 5607 5604 5603 5600 5597 5594 5593 5591
5601 5602 5604 5605 5606 5607 5608 5609 5610 5611 5612 5613 5614 5614 5615 5615 5615 5615 5614 5614 5613 5612 5611 5610 5609 5608 5606 5604 5603 5601 5600 5599 5599 5597 5593 5592 5588 5586 5583 5581 5579 5576 5574
5590 5591 5593 5594 5595 5595 5596 5597 5597 5598 5599 5600 5601 5601 5601 5601 5601 5601 5600 5600 5599 5598 5597 5596 5595 5593 5592 5590 5588 5587 5585 5583 5582 5580 5577 5576 5573 5570 5567 5565 5562 5561 5558
5579 5580 5581 5582 5583 5583 5583 5584 5585 5585 5586 5586 5587 5587 5587 5587 5587 5587 5586 5586 5585 5584 5583 5582 5581 5579 5577 5575 5573 5572 5570 5568 5567 5564 5560 5559 5557 5555 5552 5549 5547 5545 5543
5568 5569 5570 5570 5571 5571 5571 5571 5572 5572 5573 5573 5573 5574 5574 5574 5574 5573 5574 5573 5572 5571 5569 5567 5566 5564 5562 5560 5558 5556 5554 5552 5551 5549 5545 5543 5542 5540 5538 5536 5533 5530 5528
5557 5558 5558 5559 5559 5559 5559 5559 5559 5559 5560 5561 5561 5561 5561 5561 5561 5560 5560 5559 5559 5557 5556 5554 5553 5550 5548 5546 5543 5541 5538 5536 5534 5533 5530 5528 5526 5524 5524 5523 5519 5516 5513